When you browse on this site, cookies collect data to enhance your experience and personalize the content and advertising you see.
Visit our Privacy Policy to learn more. By continuing to use the site, you agree to this use of cookies and data.
  • In United Kingdom
  • List of Countries
  • For 7 days
  • Water Temperature
  • Weather Map
  • Weather Widgets
  • user-avatar
    Login

    Hourly Weather Cleckheaton

    Today, 27 February, Thursday

    Time Temperature Precipitation Wind Pressure Humidity
    00:00 0°C° 0 mm 4 mps 741 mmHg 82%
    01:00 0°C° 0.2 mm 4 mps 740 mmHg 85%
    02:00 0°C° 0.2 mm 4 mps 740 mmHg 88%
    03:00 +1°C° 0.2 mm 3 mps 739 mmHg 91%
    04:00 +1°C° 0.7 mm 3 mps 739 mmHg 93%
    05:00 +2°C° 0.7 mm 2 mps 739 mmHg 95%
    06:00 +2°C° 0.7 mm 2 mps 739 mmHg 96%
    07:00 +2°C° 0.3 mm 2 mps 739 mmHg 93%
    08:00 +1°C° 0.3 mm 3 mps 739 mmHg 91%
    09:00 0°C° 0.3 mm 4 mps 739 mmHg 88%
    10:00 +1°C° 0 mm 4 mps 740 mmHg 80%
    11:00 +2°C° 0 mm 5 mps 740 mmHg 73%
    12:00 +2°C° 0 mm 6 mps 741 mmHg 65%
    13:00 +3°C° 0 mm 6 mps 741 mmHg 64%
    14:00 +3°C° 0 mm 7 mps 742 mmHg 63%
    15:00 +3°C° 0 mm 7 mps 743 mmHg 62%
    16:00 +2°C° 0 mm 7 mps 743 mmHg 65%
    17:00 +2°C° 0 mm 6 mps 744 mmHg 67%
    18:00 +1°C° 0 mm 6 mps 745 mmHg 70%
    19:00 +1°C° 0 mm 5 mps 746 mmHg 72%
    20:00 0°C° 0 mm 5 mps 746 mmHg 74%
    21:00 0°C° 0 mm 4 mps 747 mmHg 76%
    22:00 0°C° 0 mm 4 mps 747 mmHg 77%
    23:00 0°C° 0 mm 4 mps 748 mmHg 78%

    Tomorrow, 28 February, Friday

    Time Temperature Precipitation Wind Pressure Humidity
    00:00 +1°C° 0 mm 3 mps 748 mmHg 80%
    01:00 +1°C° 0 mm 3 mps 748 mmHg 79%
    02:00 +1°C° 0 mm 3 mps 748 mmHg 79%
    03:00 +1°C° 0 mm 3 mps 747 mmHg 79%
    04:00 +1°C° 0 mm 3 mps 747 mmHg 78%
    05:00 +1°C° 0 mm 3 mps 747 mmHg 78%
    06:00 +1°C° 0 mm 3 mps 746 mmHg 77%
    07:00 0°C° 0 mm 4 mps 745 mmHg 79%
    08:00 0°C° 0 mm 5 mps 745 mmHg 80%
    09:00 0°C° 0 mm 5 mps 744 mmHg 82%
    10:00 -1°C° 1 mm 6 mps 742 mmHg 86%
    11:00 -1°C° 1 mm 7 mps 741 mmHg 91%
    12:00 -1°C° 1 mm 8 mps 740 mmHg 95%
    13:00 0°C° 1.2 mm 7 mps 738 mmHg 95%
    14:00 +2°C° 1.2 mm 6 mps 736 mmHg 95%
    15:00 +3°C° 1.2 mm 5 mps 735 mmHg 94%
    16:00 +5°C° 1 mm 5 mps 734 mmHg 95%
    17:00 +6°C° 1 mm 5 mps 733 mmHg 95%
    18:00 +7°C° 1 mm 6 mps 733 mmHg 95%
    19:00 +7°C° 0.6 mm 6 mps 732 mmHg 94%
    20:00 +7°C° 0.6 mm 6 mps 731 mmHg 94%
    21:00 +7°C° 0.6 mm 5 mps 731 mmHg 93%
    22:00 +8°C° 0.6 mm 6 mps 730 mmHg 92%
    23:00 +8°C° 0.6 mm 6 mps 729 mmHg 92%

    Day after tomorrow, 29 February, Saturday

    Time Temperature Precipitation Wind Pressure Humidity
    00:00 +8°C° 0.6 mm 6 mps 728 mmHg 91%
    01:00 +8°C° 0.2 mm 7 mps 727 mmHg 89%
    02:00 +7°C° 0.2 mm 8 mps 725 mmHg 88%
    03:00 +9°C° 0.2 mm 8 mps 723 mmHg 86%
    04:00 +7°C° 0.6 mm 8 mps 723 mmHg 87%
    05:00 +7°C° 0.6 mm 8 mps 722 mmHg 87%
    06:00 +7°C° 0.6 mm 8 mps 721 mmHg 87%
    07:00 +5°C° 0.3 mm 8 mps 721 mmHg 83%
    08:00 +3°C° 0.3 mm 9 mps 721 mmHg 78%
    09:00 +1°C° 0.3 mm 9 mps 721 mmHg 73%
    10:00 +2°C° 0 mm 9 mps 721 mmHg 67%
    11:00 +2°C° 0 mm 9 mps 722 mmHg 61%
    12:00 +2°C° 0 mm 9 mps 722 mmHg 56%
    13:00 +2°C° 0.2 mm 10 mps 721 mmHg 56%
    14:00 +2°C° 0.2 mm 10 mps 721 mmHg 56%
    15:00 +2°C° 0.2 mm 10 mps 720 mmHg 57%
    16:00 +1°C° 0.4 mm 11 mps 719 mmHg 66%
    17:00 -1°C° 0.4 mm 11 mps 717 mmHg 75%
    18:00 -2°C° 0.4 mm 12 mps 716 mmHg 84%
    19:00 -1°C° 1.7 mm 12 mps 715 mmHg 84%
    20:00 0°C° 1.7 mm 13 mps 714 mmHg 85%
    21:00 0°C° 1.7 mm 13 mps 714 mmHg 85%
    22:00 0°C° 1.3 mm 12 mps 714 mmHg 85%
    23:00 0°C° 1.3 mm 12 mps 714 mmHg 86%

    1 March, Sunday

    Time Temperature Precipitation Wind Pressure Humidity
    00:00 +2°C° 1.3 mm 11 mps 714 mmHg 86%
    01:00 +1°C° 1.7 mm 11 mps 714 mmHg 86%
    02:00 +1°C° 1.7 mm 11 mps 715 mmHg 85%
    03:00 +1°C° 1.7 mm 10 mps 715 mmHg 84%
    04:00 0°C° 1.7 mm 12 mps 716 mmHg 85%
    05:00 0°C° 1.7 mm 13 mps 716 mmHg 85%
    06:00 0°C° 1.7 mm 14 mps 717 mmHg 86%
    07:00 0°C° 2.2 mm 13 mps 718 mmHg 88%
    08:00 -1°C° 2.2 mm 13 mps 719 mmHg 90%
    09:00 -1°C° 2.2 mm 12 mps 720 mmHg 92%
    10:00 -1°C° 1.5 mm 13 mps 721 mmHg 88%
    11:00 0°C° 1.5 mm 13 mps 722 mmHg 84%
    12:00 0°C° 1.5 mm 13 mps 723 mmHg 80%
    13:00 0°C° 0.2 mm 13 mps 723 mmHg 79%
    14:00 +2°C° 0.2 mm 12 mps 724 mmHg 78%
    15:00 +2°C° 0.2 mm 11 mps 724 mmHg 77%
    16:00 0°C° 0.2 mm 12 mps 725 mmHg 74%
    17:00 0°C° 0.2 mm 12 mps 725 mmHg 72%
    18:00 0°C° 0.2 mm 12 mps 725 mmHg 69%
    19:00 -1°C° 0.7 mm 11 mps 726 mmHg 75%
    20:00 -1°C° 0.7 mm 11 mps 727 mmHg 82%
    21:00 0°C° 0.7 mm 10 mps 727 mmHg 88%
    22:00 0°C° 0.4 mm 10 mps 728 mmHg 88%
    23:00 0°C° 0.4 mm 9 mps 729 mmHg 88%

    2 March, Monday

    Time Temperature Precipitation Wind Pressure Humidity
    00:00 -1°C° 0.4 mm 9 mps 730 mmHg 87%
    01:00 -1°C° 0.1 mm 8 mps 730 mmHg 88%
    02:00 -1°C° 0.1 mm 8 mps 730 mmHg 89%
    03:00 -1°C° 0.1 mm 7 mps 730 mmHg 89%
    04:00 -1°C° 0.1 mm 7 mps 731 mmHg 90%
    05:00 -1°C° 0.1 mm 7 mps 731 mmHg 90%
    06:00 -1°C° 0.1 mm 6 mps 732 mmHg 91%
    07:00 -1°C° 0.1 mm 6 mps 732 mmHg 90%
    08:00 -1°C° 0.1 mm 6 mps 733 mmHg 90%
    09:00 +1°C° 0.1 mm 6 mps 733 mmHg 90%
    10:00 +1°C° 0.2 mm 6 mps 734 mmHg 90%
    11:00 +1°C° 0.2 mm 6 mps 734 mmHg 90%
    12:00 +2°C° 0.2 mm 6 mps 735 mmHg 89%
    13:00 +2°C° 0.1 mm 6 mps 735 mmHg 89%
    14:00 +2°C° 0.1 mm 6 mps 736 mmHg 89%
    15:00 +2°C° 0.1 mm 6 mps 736 mmHg 88%
    16:00 +1°C° 0.1 mm 6 mps 737 mmHg 87%
    17:00 +1°C° 0.1 mm 5 mps 737 mmHg 86%
    18:00 +1°C° 0.1 mm 5 mps 738 mmHg 85%
    19:00 +1°C° 0 mm 5 mps 739 mmHg 85%
    20:00 0°C° 0 mm 4 mps 739 mmHg 85%
    21:00 0°C° 0 mm 4 mps 740 mmHg 85%
    22:00 0°C° 0 mm 4 mps 741 mmHg 85%
    23:00 +1°C° 0 mm 3 mps 741 mmHg 85%

    3 March, Tuesday

    Time Temperature Precipitation Wind Pressure Humidity
    00:00 0°C° 0 mm 3 mps 742 mmHg 85%
    01:00 0°C° 0 mm 3 mps 742 mmHg 85%
    02:00 0°C° 0 mm 3 mps 742 mmHg 85%
    03:00 0°C° 0 mm 3 mps 742 mmHg 85%
    04:00 0°C° 0 mm 3 mps 742 mmHg 85%
    05:00 0°C° 0 mm 3 mps 742 mmHg 85%
    06:00 -1°C° 0 mm 3 mps 743 mmHg 86%
    07:00 0°C° 0 mm 3 mps 743 mmHg 84%
    08:00 0°C° 0 mm 4 mps 743 mmHg 81%
    09:00 +1°C° 0 mm 4 mps 743 mmHg 79%
    10:00 +3°C° 0 mm 4 mps 743 mmHg 75%
    11:00 +3°C° 0 mm 4 mps 743 mmHg 71%
    12:00 +4°C° 0 mm 4 mps 743 mmHg 68%
    13:00 +4°C° 0 mm 3 mps 742 mmHg 66%
    14:00 +4°C° 0 mm 3 mps 742 mmHg 64%
    15:00 +4°C° 0 mm 3 mps 742 mmHg 62%
    16:00 +4°C° 0 mm 2 mps 742 mmHg 66%
    17:00 +4°C° 0 mm 1 mps 742 mmHg 71%
    18:00 +3°C° 0 mm 1 mps 742 mmHg 75%
    19:00 +3°C° 0 mm 1 mps 742 mmHg 77%
    20:00 +3°C° 0 mm 1 mps 743 mmHg 78%
    21:00 +2°C° 0 mm 1 mps 743 mmHg 80%
    22:00 +2°C° 0 mm 1 mps 743 mmHg 81%
    23:00 +2°C° 0 mm 1 mps 743 mmHg 83%
    Show more